GFSGBSN_con_3kmhel_009.txt.gz
Helicity
19 21 23 23 26 31 42 47 54 66 77 86 97 100 92 83 76 73 56 35 34 31 19 13 7 16 -5 -3 41 118 67 7 23 -35 -47 -50 -30 -4 25 35 13 3 29 6 4 34 2
16 17 22 21 26 31 44 50 54 57 54 67 78 88 95 91 86 81 69 54 37 41 32 15 -2 -5 10 -3 4 75 19 31 4 -33 -35 -12 -49 -9 37 34 35 3 1 17 13 -2 28
-3 -3 2 13 32 37 51 62 72 74 68 66 64 68 79 92 111 109 96 60 55 41 35 8 9 21 10 44 8 47 35 -7 12 2 -28 -24 35 -42 7 39 28 33 9 14 10 7 34
-6 -14 -12 -5 3 7 17 36 44 58 64 67 76 73 78 94 106 108 99 100 62 36 1 6 19 29 13 4 42 48 33 -5 9 16 17 14 5 5 11 11 43 0 21 23 49 29 45
1 0 2 5 3 5 14 21 25 40 52 53 66 81 80 122 136 120 87 117 55 8 7 12 4 22 9 106 30 19 20 1 4 12 21 49 17 -89 -21 -3 13 3 0 34 81 35 57
5 8 11 13 17 12 2 4 20 32 44 43 51 79 68 119 135 130 117 116 33 26 -6 21 35 27 32 26 42 42 23 -5 26 33 38 19 -40 -115 -111 -65 -49 -18 11 13 88 63 23
3 7 10 6 7 10 11 14 17 28 52 45 38 69 94 137 161 147 71 27 43 44 46 38 44 23 92 17 48 34 47 21 14 40 30 24 19 -45 -67 -45 -21 11 7 8 12 97 5
-4 7 8 8 5 9 16 24 17 20 41 73 56 46 96 163 232 126 24 40 90 93 -9 17 -1 -4 -45 -30 37 41 45 41 46 37 16 65 26 -38 -42 -24 -40 0 -6 -9 11 93 7
14 8 9 15 20 17 18 20 24 24 34 53 82 50 84 174 249 36 70 46 78 81 50 -7 45 37 4 21 56 23 30 38 35 28 24 27 57 3 -12 -36 -28 -35 -27 -35 -8 131 -25
46 27 9 12 21 32 37 40 40 43 46 60 80 81 69 173 62 123 71 79 27 39 70 60 73 77 59 64 62 16 1 40 -20 18 -11 4 0 41 45 5 -36 -35 -33 35 -3 107 47
66 52 36 21 33 36 54 63 70 77 74 72 81 136 54 117 84 98 153 55 33 21 90 126 149 108 101 81 111 56 8 33 29 26 14 -4 -4 21 50 -27 -22 -35 -32 -37 8 69 63
76 75 62 51 57 44 49 62 82 90 92 82 98 124 128 103 37 59 53 44 65 121 132 129 135 77 91 10 12 102 34 -1 8 -11 2 -36 37 -4 39 26 51 -7 19 7 8 28 11
53 42 43 42 40 43 47 40 43 65 79 96 119 155 140 44 77 109 91 123 176 261 159 144 118 85 49 66 39 85 62 81 90 52 52 19 -29 28 0 50 49 22 14 49 38 71 18
36 24 22 30 27 23 22 40 42 55 59 81 124 214 66 37 29 29 111 192 285 284 60 77 35 52 71 30 55 75 91 76 29 45 43 63 80 -35 38 25 27 34 20 72 64 46 60
37 35 38 26 28 30 25 28 28 40 48 74 147 56 79 57 44 58 169 304 394 161 128 32 53 63 58 11 25 51 72 76 69 15 33 71 60 32 8 20 20 23 72 16 16 25 37
50 50 55 49 43 37 37 34 41 48 47 85 61 65 61 29 91 91 241 221 183 73 37 40 114 49 41 59 71 53 51 33 33 40 -28 18 44 57 31 19 31 -2 61 61 61 49 42
81 78 71 63 57 60 59 54 56 64 59 87 39 94 118 65 55 180 356 214 129 31 43 56 80 26 15 24 30 77 38 22 29 31 37 -9 22 27 36 89 19 58 25 78 67 58 52
72 74 79 75 75 73 64 64 67 72 74 75 79 84 96 54 155 209 244 137 129 120 30 97 91 72 33 27 53 60 76 1 60 27 42 25 42 71 18 29 42 13 36 36 78 78 75
76 77 75 72 70 67 55 56 60 60 63 83 101 110 35 51 178 203 146 138 75 116 61 29 45 64 61 57 66 53 58 29 92 37 13 55 51 74 47 14 38 46 -2 0 44 53 100
64 63 62 62 57 49 42 43 51 48 49 47 108 137 52 73 49 82 123 95 132 36 46 61 67 45 51 66 49 63 47 30 52 49 43 112 34 54 84 61 26 45 33 -3 26 94 91
58 51 42 37 30 31 23 12 23 38 60 57 62 81 62 216 45 127 166 312 169 287 139 54 53 69 42 45 53 57 34 45 33 61 45 60 77 22 33 19 16 17 35 33 23 33 69
52 45 38 26 14 7 6 4 17 30 78 91 92 58 82 92 99 82 45 173 230 179 112 213 184 60 49 59 50 43 27 45 36 37 51 45 76 43 48 16 21 26 23 40 48 29 35
48 34 25 13 15 12 12 13 18 40 97 87 59 28 50 45 55 51 94 107 97 23 82 88 36 222 342 142 70 164 150 44 31 58 42 34 56 56 58 20 23 35 20 13 34 53 56
34 27 17 10 16 21 15 17 12 26 68 94 86 74 94 22 43 58 82 33 259 112 96 167 80 149 238 273 242 200 184 165 155 95 45 47 50 54 51 40 67 61 46 16 23 28 38
19 10 4 11 6 16 19 6 7 19 43 97 117 96 102 74 35 51 79 61 84 208 161 113 120 47 56 232 288 164 196 173 196 178 110 66 79 71 49 63 91 81 91 134 159 56 23
23 10 6 12 8 6 12 8 5 25 37 65 64 139 75 97 26 64 64 25 40 112 126 17 36 108 79 89 339 354 302 207 153 102 59 63 105 101 83 48 53 55 194 151 89 111 51
28 15 5 13 -8 -4 1 3 12 23 38 60 87 109 91 98 40 7 24 20 42 16 71 35 92 115 102 102 143 237 142 77 104 76 134 131 116 107 81 74 59 127 120 137 63 56 146
26 19 -2 -21 -6 4 -2 5 6 5 37 58 41 49 78 115 17 9 37 31 78 63 70 56 51 65 131 222 197 131 54 52 54 25 54 124 146 91 71 53 41 133 85 77 112 91 92
25 20 17 5 9 -4 1 5 27 23 44 53 35 38 61 6 9 -11 29 38 46 36 34 48 118 86 138 174 161 76 21 88 48 6 35 84 111 88 79 126 177 172 191 81 109 42 63

GFSGBSN_con_3kmhel_015.txt.gz
Helicity
2 5 8 14 16 20 26 31 33 35 41 46 55 60 70 73 77 78 61 59 57 44 30 15 -9 -19 32 18 120 39 16 83 64 26 -70 -83 -47 -17 -13 102 96 31 57 189 198 -29 -48
-11 -3 -3 0 3 13 19 19 28 34 37 34 36 44 58 58 60 70 87 82 61 48 38 9 -25 -57 23 68 53 49 179 137 36 -20 -65 -75 -40 -18 27 80 71 49 32 33 77 1 91
-24 -23 -22 -23 -21 -14 -4 3 7 17 29 35 38 43 46 52 54 64 87 94 86 56 18 -9 -64 -26 34 166 0 53 95 134 44 -16 -37 -41 27 14 5 14 56 24 25 43 32 -8 129
-44 -39 -30 -31 -30 -26 -16 -4 -3 0 8 22 29 59 78 76 75 74 83 92 103 83 5 -68 0 10 72 34 70 54 -35 17 53 10 6 37 -3 18 -19 32 57 29 12 -9 51 41 -30
-36 -32 -32 -33 -31 -21 -15 -3 3 -4 -11 0 6 29 84 120 112 100 99 123 131 17 16 39 38 44 34 16 46 -20 -1 25 38 22 34 20 46 -56 8 -59 -52 21 -6 23 41 7 103
-54 -51 -45 -33 -25 -16 -8 -10 -4 3 -1 3 33 34 60 128 150 128 116 157 16 54 50 63 97 68 15 69 14 41 -12 41 33 -9 -21 -23 49 34 -112 -97 -11 -52 -72 -5 -14 0 152
-35 -32 -28 -28 -32 -25 -15 -8 6 27 34 13 8 48 85 138 178 166 62 56 33 38 8 56 68 85 -49 7 -16 33 31 2 -2 -49 -17 -37 42 7 43 -55 -86 -65 -40 30 62 2 367
-20 -19 -19 -18 -5 10 25 37 46 48 48 53 54 63 78 154 197 216 23 34 52 33 -63 36 52 103 53 5 7 -19 55 87 16 8 1 -30 -2 -52 106 79 -39 -79 -67 -48 -51 32 235
-7 3 2 5 9 18 28 39 43 51 69 86 89 98 118 164 296 83 78 134 116 104 40 -35 151 99 154 -53 -68 -39 56 64 66 25 36 22 21 -8 -34 13 39 -42 -100 -84 -19 20 199
-7 -8 -5 0 5 5 2 8 20 36 44 61 102 136 134 164 85 96 179 211 124 99 48 18 79 48 96 76 51 -80 21 49 28 35 3 6 9 -1 -17 -37 -31 -10 -69 14 58 34 185
-10 -7 -6 -5 -2 3 9 10 18 32 43 55 81 116 116 124 98 118 156 143 165 148 128 42 44 61 85 398 145 98 -95 36 77 61 60 26 17 -1 -45 5 -71 -59 45 -10 87 65 178
-3 0 4 7 9 14 16 9 14 23 32 48 72 103 106 62 43 212 184 249 206 162 180 105 178 123 160 43 35 211 68 -10 23 29 -9 -38 -20 -47 -63 -75 42 -4 56 38 63 16 44
17 18 24 29 31 33 34 34 40 45 49 52 82 115 109 55 149 79 87 221 246 297 175 101 194 201 78 126 56 -31 89 78 71 120 29 -31 -54 -81 -30 -74 -44 19 22 25 71 70 40
38 34 35 39 35 34 33 32 34 34 37 45 75 137 73 95 93 125 203 336 364 266 194 55 105 111 112 21 86 48 139 136 86 67 114 57 -46 -58 -89 -58 -85 18 13 49 147 100 92
47 44 45 44 42 40 39 36 35 40 39 39 53 23 50 107 23 130 258 402 456 255 263 250 -17 157 124 122 93 67 88 162 157 112 62 131 45 25 0 -108 -28 -88 43 -70 69 65 101
44 45 46 45 44 49 56 61 65 65 57 72 21 25 92 140 -10 121 222 368 334 288 384 458 392 312 435 169 186 114 79 115 162 122 57 32 108 76 -22 30 -17 52 46 94 17 77 96
55 57 52 48 47 48 53 60 68 68 63 78 -1 -33 -5 90 38 185 296 258 125 163 163 175 227 249 352 242 174 235 56 143 51 149 173 106 50 30 22 71 56 -9 16 20 126 55 85
62 54 48 45 48 53 52 54 59 62 55 19 19 31 108 55 362 283 216 138 110 125 140 165 148 247 215 257 91 136 172 148 88 186 108 214 136 81 12 2 115 97 148 89 101 124 122
45 41 42 46 51 60 53 48 55 53 48 28 47 78 79 86 287 270 191 132 88 132 148 196 199 134 130 131 247 63 21 -4 115 173 143 187 235 158 70 -15 -16 108 131 169 82 140 114
42 44 43 45 49 49 42 47 44 49 39 28 36 74 66 108 163 82 132 190 227 136 165 179 168 157 110 195 117 -184 -80 -117 59 216 208 161 255 210 160 115 8 109 147 135 199 123 34
44 42 36 40 47 44 32 36 34 49 50 46 33 55 71 96 128 246 166 88 201 112 76 124 102 163 311 184 306 192 -225 -363 -169 55 130 101 103 144 145 172 62 22 74 166 156 174 187
41 41 36 33 25 27 32 35 17 43 64 81 70 46 46 18 30 132 176 263 212 207 94 189 304 91 171 126 233 84 103 103 -214 55 97 98 242 281 211 184 88 51 58 31 148 138 130
31 31 29 24 27 36 28 26 24 31 101 86 81 55 45 32 19 44 113 242 215 94 18 34 138 121 103 50 -80 55 140 272 225 344 341 61 157 214 313 243 168 84 6 35 57 123 174
33 30 23 16 23 28 18 9 12 27 113 89 84 87 71 25 24 47 48 107 146 164 90 20 6 26 61 68 0 -29 -18 83 219 250 233 169 212 149 278 261 226 188 30 55 52 70 129
38 27 14 20 21 27 16 8 12 23 36 111 104 75 76 76 15 38 57 79 38 64 39 102 60 67 38 19 -108 -94 15 65 107 141 179 101 145 238 269 270 224 200 167 89 57 59 53
27 20 10 23 25 22 10 0 11 16 24 64 78 74 95 79 47 -3 39 23 20 22 15 51 65 21 -41 57 22 -21 50 144 40 -28 -12 72 116 187 152 307 255 193 126 31 123 170 200
22 15 16 22 17 12 4 2 -5 3 19 61 65 70 113 43 54 -17 -3 16 25 35 21 12 1 63 41 17 120 92 108 236 265 158 55 82 73 127 185 217 200 108 104 127 127 206 180
30 28 34 26 21 18 10 8 0 5 19 56 48 59 127 143 75 43 19 -22 -23 -39 -20 -50 -61 78 14 25 -18 -24 108 261 243 182 268 232 202 143 156 238 244 269 175 86 150 193 120
40 9 11 20 22 17 10 0 11 11 10 28 31 53 67 95 77 31 61 32 59 76 -24 -78 18 28 51 62 19 12 -33 133 274 222 125 259 158 272 142 248 124 110 79 231 202 200 183

GFSGBSN_con_3kmhel_021.txt.gz
Helicity
-10 -4 -1 3 8 14 23 28 36 43 49 51 57 61 66 67 63 52 48 47 35 32 25 18 -7 17 67 26 94 -10 41 41 71 42 1 3 19 -38 3 35 13 13 58 72 176 118 125
-11 -12 -10 -6 -1 4 7 9 16 34 51 66 72 72 83 93 84 67 68 63 54 35 14 -6 -22 38 99 34 4 19 -13 63 46 35 -26 -61 -25 38 -11 -32 -2 -8 -7 10 34 63 145
-8 -5 -1 1 7 5 -1 2 7 16 27 45 71 86 92 100 114 118 101 80 63 64 27 -20 -34 106 143 140 31 20 49 28 76 64 75 -24 -28 -16 -35 -81 26 1 -38 -24 -10 4 97
-5 -3 2 11 19 23 24 22 19 28 42 49 61 77 106 107 122 137 131 78 87 61 21 30 106 158 105 9 17 -99 -95 -56 39 42 47 62 50 -13 57 71 78 10 -23 -74 -37 21 57
12 15 24 27 29 28 36 49 58 57 74 96 107 121 144 152 175 195 135 155 80 46 86 113 143 128 59 36 57 -53 48 -20 64 23 66 111 131 80 75 -65 2 9 -42 -72 -39 -8 87
36 28 25 31 36 34 34 41 51 60 69 77 95 118 158 173 225 250 245 148 1 65 107 88 146 71 41 58 84 107 32 -20 37 -22 29 113 157 140 126 54 -44 -3 -33 -130 -120 68 104
26 25 21 20 19 16 14 19 27 34 42 53 70 99 139 162 227 229 241 107 92 76 113 76 74 62 -48 28 89 89 69 68 61 66 83 112 107 111 117 92 68 9 2 -103 -110 37 94
15 12 13 13 8 5 4 4 7 12 19 35 45 62 84 133 270 136 100 106 101 56 -38 -14 16 89 70 69 94 118 92 220 158 118 82 117 94 76 166 156 84 57 16 -122 -74 -10 48
10 6 6 4 2 -1 1 0 -4 -7 -3 15 32 46 61 70 196 72 110 75 156 63 -26 -68 90 78 124 147 68 -58 176 208 246 128 77 112 152 93 82 138 94 43 2 -129 -49 54 54
16 12 13 16 18 21 21 17 15 13 10 12 40 63 49 43 21 65 68 132 114 55 -17 -31 10 39 135 198 195 11 160 173 208 106 82 -34 -42 69 65 -3 41 -138 22 -54 -86 -92 9
21 22 23 25 25 20 14 9 10 12 18 28 50 95 100 -9 41 86 60 176 169 59 45 46 70 77 64 65 186 128 223 256 186 202 196 141 124 62 45 33 123 -36 20 -5 -84 -73 -3
35 39 33 31 31 27 21 16 11 5 -2 -1 34 79 92 -1 61 155 51 181 135 174 115 160 160 149 107 61 111 151 281 313 191 146 141 81 67 56 24 91 35 79 45 24 -22 -25 3
35 29 29 22 22 19 13 7 0 -6 -8 -13 29 74 73 12 72 71 42 165 245 228 246 294 339 284 170 148 124 140 253 310 343 207 79 179 7 95 126 95 80 163 59 37 26 50 -27
35 36 33 34 30 20 15 14 4 -9 -16 -28 -7 41 27 108 94 93 143 246 258 262 321 270 276 358 264 354 276 269 188 273 183 292 175 209 152 109 153 133 127 117 98 241 230 202 21
38 37 36 33 28 27 29 29 19 15 13 4 -7 21 31 162 169 92 277 380 263 253 305 369 287 344 425 391 443 402 396 175 202 258 230 165 170 115 156 148 123 146 156 34 186 212 240
36 37 32 30 31 35 37 42 44 24 11 -10 -55 -19 14 79 76 245 349 388 371 381 349 283 314 290 452 495 474 481 517 324 320 198 224 192 135 118 105 167 161 104 125 190 262 29 63
31 26 24 26 32 38 45 39 33 13 1 -18 -32 -110 -36 31 70 210 253 282 293 287 280 305 316 257 225 377 379 426 511 386 491 421 278 105 150 82 133 176 144 184 79 149 135 152 63
25 25 27 30 33 29 23 26 22 12 4 25 -42 -100 17 21 198 252 372 383 255 227 144 159 188 200 136 152 236 313 458 517 195 433 369 316 179 91 121 120 108 171 136 202 235 188 172
29 34 33 28 29 27 24 30 30 30 39 25 -1 -6 -6 -6 108 206 293 281 280 342 221 199 323 159 93 56 202 145 280 196 290 311 491 461 382 231 255 91 82 146 227 141 168 194 -72
37 30 24 29 32 30 22 26 35 45 43 61 17 -22 -3 26 40 -3 5 150 220 170 243 270 195 172 105 79 36 144 276 185 245 229 231 232 369 344 204 189 160 195 144 135 161 209 50
22 24 31 32 35 25 15 25 33 47 40 62 35 2 19 4 29 52 66 1 115 116 113 251 195 112 128 26 -82 -84 -76 1 66 0 53 33 229 285 195 224 141 182 218 67 168 161 220
23 27 31 37 36 32 28 29 38 58 82 73 48 45 48 34 0 6 9 21 -1 99 122 119 136 268 208 38 -29 -155 -115 -221 -208 -14 25 -16 105 181 30 138 84 91 112 139 101 161 184
30 36 37 35 33 23 25 36 43 55 117 87 71 75 71 47 31 27 12 5 38 73 48 12 148 183 101 26 48 4 -78 -93 -124 -223 -75 -78 29 101 -123 150 248 40 20 97 135 147 202
38 34 34 30 34 31 27 28 34 49 110 111 85 94 94 66 42 29 34 15 25 23 46 50 68 51 55 -1 -1 14 -14 -59 -86 -91 -78 -110 -27 59 -16 156 215 89 -47 44 84 134 231
44 45 45 35 33 32 28 25 22 34 60 119 90 80 87 59 23 23 26 12 27 19 32 21 34 31 42 11 -30 -35 -24 -40 -67 -119 -105 -62 -60 79 110 193 167 167 116 39 169 144 148
45 43 44 46 44 41 34 29 23 25 30 88 78 108 97 64 67 39 56 37 20 2 32 23 39 21 14 2 -18 -64 -53 -17 6 -71 -107 -80 -88 -6 93 179 253 131 332 335 172 115 244
64 61 53 51 50 46 45 43 33 34 32 80 53 84 82 89 115 56 84 48 -2 15 -12 -13 0 35 51 31 14 6 19 62 128 45 7 127 130 61 103 251 280 231 300 242 250 157 172
70 66 75 84 83 77 59 43 42 35 27 61 61 73 103 104 163 189 188 79 22 15 11 21 -34 38 64 47 36 27 43 52 93 74 123 57 310 143 146 220 342 173 162 245 298 334 341
87 95 102 110 97 86 83 83 64 53 39 30 67 53 67 111 153 48 108 169 176 206 48 30 23 -2 -26 -13 -1 7 66 45 40 29 54 125 205 197 213 254 75 -51 224 300 281 211 465

GFSGBSN_con_3kmhel_024.txt.gz
Helicity
1 6 9 17 23 29 35 37 35 40 49 51 57 62 59 45 40 46 36 34 26 30 23 9 1 28 62 51 53 59 -7 28 81 146 139 73 71 97 46 -11 50 91 69 54 123 28 80
-13 -7 3 8 13 22 28 32 39 44 64 86 98 99 85 88 88 88 69 25 17 7 3 -5 -18 39 88 44 13 3 68 99 57 93 75 74 26 86 61 -67 -6 6 76 94 23 8 36
1 8 13 21 28 28 28 35 42 53 58 71 84 99 106 116 129 155 124 75 33 5 2 -25 69 126 130 111 41 115 56 96 88 68 73 38 108 41 40 13 -2 -1 -22 -41 16 16 53
30 30 29 25 30 33 31 32 39 50 61 66 80 94 97 111 133 164 205 158 99 28 -21 40 126 177 92 28 -6 -117 39 39 46 42 88 -29 70 90 35 63 50 3 3 -84 -32 22 15
18 15 16 16 17 15 15 20 30 36 45 58 76 102 104 138 167 198 200 212 96 96 89 110 158 134 53 46 51 -23 31 59 71 13 -10 45 126 100 74 47 32 44 -22 -91 13 13 20
15 12 14 18 18 11 9 11 14 17 24 35 43 63 98 95 161 207 197 92 29 85 97 76 142 92 59 53 63 138 36 45 57 118 119 89 155 121 91 61 6 44 19 -43 -39 -3 14
14 13 16 15 11 9 8 12 17 20 23 31 40 46 86 111 168 126 113 40 88 85 129 104 113 85 78 67 77 88 139 118 129 153 183 155 131 135 88 153 109 41 19 -12 -20 4 33
13 11 13 12 13 13 16 16 12 15 28 52 67 59 60 141 186 45 -8 -9 19 16 1 33 6 -16 -24 174 153 147 126 268 224 230 237 230 167 91 93 118 120 80 17 -31 -25 11 43
22 22 19 20 23 23 20 16 14 18 29 43 70 81 56 136 163 56 7 -10 53 -2 -16 -28 101 103 86 161 37 79 178 266 345 296 259 249 129 143 59 80 100 97 -3 -25 6 39 111
39 35 30 28 24 24 23 27 32 32 33 41 56 72 76 83 9 82 23 50 36 17 2 -1 28 108 136 174 156 79 137 277 302 214 277 139 79 71 133 41 92 -29 114 63 -28 55 70
37 33 30 30 31 36 33 28 24 16 18 30 42 71 56 7 -33 50 52 76 96 32 29 72 109 78 76 91 209 186 258 253 262 344 282 231 213 217 99 160 198 31 118 80 62 32 29
39 35 33 32 30 24 20 14 10 1 -1 7 27 72 87 -44 15 28 12 118 102 106 79 196 164 164 138 105 141 197 392 310 231 248 202 186 122 114 106 134 167 176 138 109 91 58 2
31 28 26 24 26 19 15 13 7 1 -1 8 26 66 22 -42 -9 61 65 181 189 181 239 265 307 278 212 220 170 150 237 379 349 343 189 156 52 103 138 135 107 138 115 73 78 120 -59
24 23 25 27 28 26 23 17 13 9 3 5 20 28 -1 -39 57 50 86 268 237 217 259 280 217 296 219 334 276 276 196 330 319 340 239 244 167 97 177 157 181 155 177 209 184 193 108
26 25 27 30 32 32 31 28 22 19 26 26 7 14 -29 -32 32 51 180 284 264 318 311 353 277 263 338 316 282 356 351 284 286 301 205 150 172 141 214 205 182 237 147 143 214 222 185
27 30 34 36 37 36 36 40 37 28 34 30 -0 -9 -51 -19 2 35 170 312 366 421 481 439 384 333 399 392 380 423 455 433 367 249 208 184 112 147 69 206 182 188 262 263 264 85 -20
32 32 31 32 34 34 34 39 41 32 29 21 9 -53 -55 14 -34 57 135 261 239 288 339 418 471 463 412 411 351 477 537 414 558 449 238 282 226 206 202 200 128 254 245 264 180 233 137
28 24 25 31 37 34 35 41 47 37 28 48 -4 -26 23 30 -20 3 98 107 121 153 162 201 275 292 284 278 345 434 447 496 503 607 465 294 232 200 210 199 130 130 228 374 286 208 242
28 31 38 39 33 33 35 47 65 50 49 50 17 -3 -0 11 -30 2 63 33 32 119 158 229 255 199 200 216 291 254 320 252 397 484 535 471 383 308 246 152 139 145 126 268 209 259 121
33 30 36 47 46 41 51 65 78 68 62 84 46 8 2 47 -6 -31 -3 -6 35 10 48 155 222 159 196 215 165 240 295 216 293 240 336 382 396 335 329 281 335 251 245 189 167 221 11
38 38 38 38 41 37 38 53 66 64 62 93 82 54 25 9 34 24 6 -49 -4 61 65 -14 105 267 205 86 80 40 126 141 164 127 104 228 409 372 322 457 316 275 227 193 231 126 186
42 38 33 37 39 43 48 52 59 66 115 101 82 80 81 59 8 19 21 -11 -28 -7 22 91 24 108 196 148 98 -26 -52 -61 -7 46 76 59 271 280 252 289 331 176 208 194 184 172 147
38 35 38 41 40 48 57 65 65 76 122 92 77 89 112 82 56 37 22 10 20 3 13 14 61 138 100 114 39 51 5 25 -5 -55 -0 47 78 197 99 230 320 155 103 144 144 182 183
42 45 50 45 36 35 40 48 58 81 144 121 96 97 115 97 60 27 36 28 14 18 -1 6 39 64 22 -9 33 38 13 -22 -11 4 -22 -67 4 41 97 111 75 198 261 234 127 108 202
51 59 56 57 54 50 47 42 45 58 104 169 116 106 110 135 67 31 23 3 2 13 20 -3 44 19 32 -8 -4 33 28 -12 4 -4 24 -43 -47 59 117 121 158 390 300 218 108 162 136
56 56 56 61 65 70 65 78 74 57 70 141 116 125 131 144 156 65 24 -16 31 -0 -24 11 27 45 -3 -3 25 -1 9 -5 -0 -57 -95 24 14 83 90 80 -18 64 201 182 40 7 109
53 60 63 65 70 69 71 50 55 71 79 149 105 113 127 180 178 72 51 -0 48 -32 -11 7 26 33 38 4 20 34 48 35 22 63 -13 35 31 -7 36 168 94 193 159 -31 183 107 248
74 84 85 89 87 83 71 69 49 48 56 133 152 132 124 211 221 143 36 70 35 14 22 -26 -29 16 35 21 16 11 26 24 34 68 90 115 14 27 121 187 116 116 130 141 140 91 229
87 104 112 131 130 113 91 66 67 47 47 60 167 121 118 250 265 170 189 185 192 188 70 87 45 -8 -9 27 27 23 6 -35 -2 11 90 121 139 176 105 160 131 64 108 61 -41 83 174

GFSGBSN_con_3kmhel_030.txt.gz
Helicity
17 22 26 26 24 27 30 36 42 47 55 63 56 63 71 91 100 95 101 79 78 61 26 2 -4 11 8 2 -25 47 26 38 20 23 31 10 27 24 -7 1 9 -19 54 33 33 43 68
-2 4 7 9 11 14 16 19 23 32 41 49 54 46 48 76 110 102 87 85 97 86 40 -1 15 41 40 11 39 45 14 63 68 22 18 -5 -15 42 64 2 -18 15 23 49 43 50 53
-1 6 6 7 8 11 14 17 22 32 44 49 54 57 64 92 119 103 98 77 74 53 40 44 79 57 41 20 31 43 40 48 45 27 23 14 39 5 102 39 37 18 84 44 30 27 17
-0 3 -2 -2 -2 -1 2 10 21 31 42 52 57 76 88 113 128 131 87 67 17 32 52 84 96 85 47 29 20 43 47 28 10 -12 -13 9 83 -5 74 134 49 -55 59 65 13 9 3
8 6 8 11 13 12 13 20 32 42 45 47 46 72 102 110 132 139 99 49 15 51 36 69 97 97 40 102 61 55 49 49 48 13 -30 15 60 35 1 80 61 -9 21 20 44 41 26
7 2 -1 -2 -1 -0 3 10 24 39 47 55 54 65 107 123 125 90 97 -18 23 -6 25 52 121 71 79 60 53 65 55 67 101 98 81 43 54 96 73 26 -16 63 40 67 23 41 17
5 -0 -3 -1 -1 -4 -6 1 12 26 31 39 50 72 78 124 135 94 20 -40 -35 -61 13 34 103 103 112 110 91 66 82 108 97 105 132 93 106 138 94 70 75 71 54 45 29 33 53
4 -5 -8 -9 -9 -11 -11 -6 4 17 18 17 34 56 81 114 92 -0 -47 25 64 55 28 21 -4 13 67 150 113 80 93 193 167 188 101 127 137 35 37 73 81 81 59 49 60 53 68
-7 -18 -20 -15 -8 -3 -9 -13 -5 7 10 12 37 53 67 67 -40 -37 35 58 45 47 -27 9 34 74 85 93 130 122 111 137 173 157 161 143 28 45 39 33 21 9 -13 31 74 52 31
-0 -6 -4 -3 -1 -1 -6 -12 -13 -8 -2 5 18 35 46 28 -122 -12 -5 78 41 38 -8 -49 37 88 125 189 142 125 47 111 160 124 111 4 60 27 36 35 25 -42 -0 52 78 79 81
6 3 1 -3 -7 -8 -12 -21 -25 -15 -0 5 22 27 8 -58 -37 -22 26 40 31 20 37 108 104 91 106 178 201 169 91 69 110 83 126 36 32 74 55 61 29 22 64 36 56 78 64
14 8 3 -1 -1 -1 -2 -0 4 5 10 21 34 35 -32 -41 -64 8 22 38 31 114 108 132 125 112 100 124 283 266 164 85 77 68 48 6 44 38 15 22 6 34 58 75 36 58 2
17 8 5 8 17 24 28 35 39 41 45 51 73 48 -17 -18 -22 13 22 24 110 242 198 293 406 271 252 157 137 180 132 196 222 165 84 56 28 50 52 14 25 23 27 84 120 18 -25
20 14 28 39 47 41 37 42 48 53 59 72 82 3 66 9 8 4 1 28 227 278 479 471 378 369 220 208 161 113 123 140 119 142 103 111 80 73 65 24 68 46 27 135 81 30 1
16 29 41 45 47 41 41 46 46 47 54 54 42 48 43 42 12 -3 -11 49 193 341 328 355 445 336 188 209 324 155 91 83 98 120 137 75 55 74 90 79 65 80 14 -27 142 150 102
23 26 38 47 42 40 36 37 34 31 31 39 48 36 78 24 5 -25 -26 101 202 145 188 247 449 399 613 312 347 213 147 269 165 18 181 209 106 90 69 37 65 85 18 59 62 -12 -4
18 17 30 38 35 33 40 49 48 40 42 24 33 31 77 9 -5 -16 57 85 78 84 66 177 347 363 432 414 440 393 296 278 449 369 281 359 240 83 86 112 136 108 120 43 46 7 -26
19 26 25 30 41 40 38 63 64 59 52 38 31 72 63 26 33 11 36 33 33 44 38 90 126 172 327 350 445 381 279 505 331 406 260 266 275 221 83 70 45 58 93 105 132 53 -18
25 29 31 21 33 39 43 57 67 75 63 63 50 81 70 19 86 46 38 16 11 30 35 104 103 187 181 332 353 319 312 253 408 403 359 329 231 203 142 80 54 80 84 69 55 68 3
25 22 23 23 32 47 54 66 71 80 88 66 51 83 90 42 51 41 39 47 35 -1 -6 67 66 90 215 139 140 330 321 260 328 358 471 368 316 173 137 84 94 118 106 83 81 94 77
37 29 23 23 37 42 56 68 92 83 77 63 116 165 94 84 42 20 25 10 28 33 26 14 6 42 154 180 236 196 189 346 190 265 414 482 266 293 302 269 329 287 84 92 99 79 25
45 43 34 36 44 55 57 58 78 113 74 63 88 123 127 48 28 32 43 28 24 37 22 12 39 84 61 189 226 259 220 291 374 306 400 412 387 339 348 328 301 336 295 333 207 121 73
50 54 47 45 49 56 63 71 101 171 104 122 144 102 140 94 56 46 42 19 12 8 7 -9 25 57 110 14 68 97 110 147 137 228 344 402 439 280 257 202 322 265 242 186 175 179 170
51 56 55 59 60 65 76 91 99 192 160 110 83 113 159 140 85 61 31 36 26 -7 -13 17 14 24 30 45 47 64 59 84 108 90 61 249 292 342 396 232 236 150 134 85 90 116 107
51 50 54 60 62 73 92 87 106 137 200 111 98 110 159 184 98 56 39 37 15 8 39 2 6 12 11 18 79 72 53 89 110 35 35 20 169 327 322 243 385 294 227 252 173 158 172
54 64 60 54 70 86 87 88 102 135 220 109 143 101 122 173 100 89 40 29 34 29 18 14 32 -9 -2 20 52 85 105 86 161 44 -5 23 20 165 281 296 228 198 54 132 178 189 187
62 75 58 71 83 77 80 91 90 117 149 119 118 177 150 219 119 77 92 76 56 41 31 3 -9 -9 -5 14 42 43 58 67 164 152 15 11 -11 77 171 297 254 205 131 234 170 190 208
73 81 61 91 89 72 74 87 89 89 110 115 159 204 225 216 175 101 88 105 59 80 54 -12 -14 22 7 16 29 24 36 25 61 76 123 91 5 -21 54 162 127 142 310 243 241 356 218
79 77 71 80 87 69 66 92 85 103 85 94 136 190 166 189 189 61 56 51 89 64 40 51 18 -5 -7 12 23 42 36 50 40 85 34 135 157 214 70 75 176 199 173 146 177 202 277

GFSGBSN_con_3kmhel_033.txt.gz
Helicity
5 11 11 16 22 29 35 38 41 38 42 46 53 64 81 83 83 74 76 76 76 66 39 15 -6 30 47 23 -15 80 33 35 45 19 -19 -6 -22 -2 -5 -10 1 26 62 13 25 8 2
7 7 9 13 19 29 35 38 39 41 43 48 60 64 73 89 94 91 82 73 77 60 24 2 11 49 37 0 33 49 59 39 33 30 -11 -6 -33 -7 0 13 -4 11 16 23 13 -4 3
5 6 8 12 20 27 33 36 37 40 40 50 66 77 83 101 96 94 91 74 55 15 7 7 54 37 28 5 71 61 69 42 18 18 -2 -2 -15 -7 -22 12 7 -29 45 3 3 18 0
2 4 7 10 15 20 24 29 31 34 40 50 68 71 82 99 112 118 95 67 22 15 36 45 57 72 54 30 17 27 44 39 15 2 -23 2 -9 -10 -33 12 71 -33 11 4 -8 -3 -3
2 0 -2 -3 -3 0 2 5 8 15 24 37 47 62 88 95 126 131 91 60 -14 14 31 21 24 42 35 102 40 29 28 43 36 -2 -41 -9 -14 54 -7 73 64 -28 -31 -21 -14 21 4
-3 -9 -12 -14 -12 -7 -2 3 6 12 20 31 42 52 74 94 76 64 95 37 38 22 -14 29 76 60 66 16 29 44 22 2 39 38 12 -8 20 24 -32 9 -26 1 -5 -8 -13 53 5
-6 -7 -7 -8 -8 -6 -2 1 -1 0 10 22 32 36 48 86 60 -7 7 17 -20 -86 30 49 98 61 105 69 113 58 69 57 35 53 72 44 61 56 52 -14 35 31 6 1 18 57 30
-1 3 5 1 -4 -3 -1 1 3 2 6 13 20 29 25 25 -58 -88 -19 25 60 59 32 38 -16 9 -6 102 68 66 72 114 97 110 48 79 63 29 10 14 39 43 28 5 20 41 35
12 8 6 -2 -8 -9 -5 1 4 6 8 11 12 15 17 -22 -154 -103 -44 48 20 33 10 17 16 43 58 41 83 67 102 78 112 93 80 69 15 -4 18 -6 6 -45 -22 -10 19 2 41
12 6 3 1 -2 0 2 4 5 9 16 20 15 9 -11 -38 -143 -60 31 18 10 19 26 18 37 112 94 126 93 25 90 78 130 61 50 1 -9 30 0 7 -1 -21 -7 15 17 26 51
6 3 9 17 15 10 15 23 26 25 31 36 35 32 -13 -43 -96 -72 -28 -3 12 -1 156 116 162 145 131 210 56 98 112 20 68 48 46 36 5 46 15 13 1 6 21 30 28 35 45
8 3 6 11 10 16 22 26 33 43 48 51 46 41 -11 20 -75 34 -13 -11 -5 148 197 60 83 56 72 36 172 34 144 15 -11 43 35 6 35 27 18 11 13 15 42 31 22 38 2
9 8 10 9 17 24 24 31 34 37 38 47 60 55 -8 27 19 9 -14 -23 21 238 78 201 315 274 100 62 118 140 123 125 123 88 71 48 19 32 23 38 17 51 18 46 -16 -34 -56
13 13 19 18 17 23 17 18 17 33 42 41 25 -30 45 17 26 14 -9 -63 58 140 122 218 435 569 411 286 50 66 112 136 77 112 107 105 89 23 59 26 59 50 0 41 100 40 -16
20 18 21 20 22 27 25 26 22 16 31 50 39 48 28 53 26 26 2 -46 17 124 135 190 301 305 221 97 141 33 65 73 86 69 96 101 33 48 44 36 14 92 -1 -41 -3 42 11
22 22 25 31 33 32 31 38 38 17 23 30 37 17 120 59 20 21 9 -24 90 53 78 92 325 223 302 265 100 156 37 37 29 44 37 77 40 21 -16 40 31 51 29 52 49 70 -1
26 28 31 36 41 28 34 36 44 50 38 8 35 12 155 27 5 26 8 86 95 113 47 36 133 239 252 359 565 282 69 161 261 232 40 82 67 53 60 117 95 63 58 47 30 21 24
30 35 38 34 31 15 34 41 43 45 40 7 29 56 72 15 -22 62 32 64 37 8 19 40 44 147 147 128 484 445 163 165 318 359 186 86 111 162 73 62 28 35 33 63 72 -37 -6
32 41 47 45 38 19 32 47 45 34 43 69 43 36 67 16 69 20 30 12 12 26 34 43 41 64 146 162 244 233 270 169 150 419 322 191 210 268 87 61 51 26 42 34 31 31 33
33 38 45 53 50 42 40 52 69 46 38 77 69 67 50 -2 34 15 11 -13 -17 59 13 21 11 25 85 192 96 132 233 186 115 277 279 323 302 220 160 120 95 53 44 25 40 81 42
46 38 40 45 49 56 59 60 85 77 47 56 89 98 74 65 37 30 10 9 -5 38 40 -3 -18 33 72 123 240 43 104 189 201 57 303 290 294 240 140 90 134 57 40 37 60 43 55
55 48 46 50 56 67 73 76 90 113 73 114 164 91 44 29 78 29 4 -3 -4 5 29 26 20 79 47 117 203 184 190 271 415 390 411 360 297 300 288 89 78 224 110 28 44 38 34
54 53 51 54 58 63 73 79 98 123 152 241 149 45 76 61 36 61 16 -5 -18 2 -13 35 29 29 88 35 53 133 6 147 198 386 512 543 489 254 253 172 112 229 213 100 49 49 41
55 53 49 55 56 62 79 80 101 113 184 298 158 95 132 129 58 44 49 21 3 -18 -13 18 12 2 3 6 18 85 74 24 84 132 191 455 540 452 319 288 200 151 65 103 137 124 119
50 52 51 60 57 67 76 87 98 120 124 240 227 136 141 202 129 57 52 31 11 27 66 38 29 7 16 1 99 120 50 47 38 22 89 151 375 400 363 279 141 90 109 11 77 132 99
55 64 69 59 45 62 69 81 97 109 107 201 221 127 183 178 144 152 23 35 39 -3 16 11 19 -6 7 19 96 118 111 38 16 -69 -19 76 103 338 362 370 290 76 146 164 111 174 30
71 69 67 57 41 53 63 79 89 81 100 156 231 213 157 234 172 89 123 25 1 17 27 8 -9 19 7 34 65 127 94 61 152 105 -23 -9 149 216 311 385 241 140 110 75 168 229 129
79 75 62 53 43 43 58 81 70 63 68 93 159 242 183 198 174 118 49 75 44 42 60 10 26 44 31 16 49 46 60 53 108 103 107 27 45 168 195 259 358 150 123 197 181 187 359
83 80 56 51 33 35 58 67 56 65 60 73 155 162 164 204 171 56 41 38 40 37 41 52 -8 5 -22 -2 23 43 62 58 106 139 18 178 100 77 83 118 78 130 102 104 37 151 270

GFSGBSN_con_3kmhel_036.txt.gz
Helicity
21 26 29 30 29 33 34 32 34 41 50 55 62 71 77 81 74 73 87 86 60 55 35 10 9 42 76 49 -3 48 41 66 108 38 -5 -40 -27 -27 7 41 30 30 127 12 83 79 102
20 24 28 31 36 41 43 47 48 51 50 62 80 94 101 103 105 104 102 80 64 45 15 11 17 55 91 30 7 69 73 61 57 49 7 -34 -38 -36 -23 34 32 16 86 93 183 34 19
14 17 20 21 22 25 25 26 30 38 51 52 63 78 98 117 140 140 97 78 73 27 21 15 31 27 49 53 18 31 84 46 27 40 26 -21 -34 -26 -35 -12 39 28 10 8 31 3 1
4 8 9 10 10 13 16 18 20 28 38 45 60 61 85 112 136 137 105 75 67 10 20 35 30 30 66 14 51 38 38 48 14 36 -8 -20 -20 -5 -33 -2 27 12 -2 19 10 -11 9
-3 -2 1 7 12 15 15 13 13 17 19 22 35 49 51 63 93 65 89 106 48 12 34 39 24 25 43 57 47 44 16 29 35 21 -12 15 -4 -32 7 -21 48 7 24 3 6 23 -22
-4 -1 4 8 3 -4 -8 -8 -4 1 7 12 21 27 34 27 21 -42 50 225 2 11 -15 30 94 44 56 23 34 23 33 6 37 32 6 -25 13 9 -51 -35 -18 32 22 3 -1 26 6
-5 -3 2 -4 -5 1 2 2 2 5 11 15 19 18 22 10 -33 -134 -111 -32 82 -48 149 97 149 71 248 32 101 55 44 31 15 41 35 17 44 43 11 -50 -4 5 4 2 -5 -21 52
-2 -6 -5 1 7 11 14 17 16 18 21 27 35 41 38 4 -69 -180 -216 -34 -50 -30 -6 56 23 -5 -43 119 129 52 41 67 67 70 40 51 10 29 -13 31 38 12 30 -7 1 -6 71
-1 1 11 18 18 18 21 30 37 42 42 41 45 57 45 15 -55 -111 -35 -20 -65 -51 -44 -60 44 67 -11 25 55 60 70 64 83 77 82 53 31 -9 -4 -10 -9 -21 -48 0 -5 2 80
9 10 12 3 -3 -3 0 10 23 39 52 51 51 60 51 8 -43 -66 -3 -21 -45 -35 -83 -87 -34 55 45 86 63 -1 75 55 64 53 58 39 -25 34 -6 -14 -25 -25 -32 -7 6 2 54
12 11 4 -3 2 10 21 40 51 43 44 53 42 43 18 16 14 -35 -5 -33 -46 -81 138 2 85 89 47 145 79 53 30 37 46 66 36 38 17 -32 30 -9 -13 -22 -2 20 33 41 46
16 12 10 16 35 40 36 41 33 4 -14 19 46 42 -11 37 60 52 -3 -9 -98 -110 94 82 120 319 49 13 38 48 35 62 31 48 39 10 34 20 3 25 -11 -1 9 6 20 40 27
14 13 14 23 31 37 36 29 12 -3 -27 -1 36 68 -33 -1 16 -8 -18 8 -162 -141 37 31 272 333 514 239 14 113 48 75 114 97 86 50 18 25 10 19 16 13 9 60 11 -6 -77
12 18 25 32 36 35 33 30 8 1 73 65 9 21 15 -29 7 -11 -13 -51 -187 -183 65 71 93 254 614 241 219 41 21 64 69 85 126 103 85 -36 36 1 35 5 -10 87 56 -26 -41
16 21 28 31 31 28 26 10 7 21 51 112 -50 45 23 68 24 2 6 -10 69 143 134 8 70 141 182 284 202 175 50 52 78 45 91 106 58 36 24 40 7 82 -40 -26 16 -6 14
18 24 29 34 35 35 27 7 13 33 56 110 69 57 -18 45 51 -26 -4 17 27 65 134 100 4 121 172 313 310 274 143 30 33 38 30 89 54 21 58 11 30 39 84 55 47 44 2
26 31 36 41 42 40 38 27 35 43 33 53 28 6 98 56 -1 -2 8 27 73 30 31 61 38 47 56 -116 238 402 219 371 414 257 35 56 46 45 17 56 73 76 57 44 35 47 32
35 40 43 51 49 45 42 37 47 52 42 30 -9 56 5 30 -20 6 28 60 41 87 -19 47 50 24 -62 -179 -24 159 317 249 541 450 295 93 73 71 70 58 43 47 56 53 90 38 38
47 50 50 56 54 54 53 53 65 47 53 108 54 40 -5 26 28 27 33 33 19 66 33 52 73 44 50 -73 -119 64 199 181 644 624 192 265 127 161 108 54 118 35 47 50 45 44 47
49 53 52 60 61 63 62 62 73 69 48 87 106 91 75 13 -3 40 33 21 11 -22 48 2 -11 9 -2 55 -3 -63 39 102 534 509 168 168 190 159 208 128 61 120 42 47 33 84 52
47 49 50 56 58 65 66 71 91 92 70 94 112 139 103 91 19 -7 0 -10 9 13 55 90 26 -10 11 17 48 -15 -28 139 191 413 450 256 266 215 82 55 41 100 54 28 48 50 48
54 52 50 52 55 65 66 75 95 105 89 108 167 161 120 29 15 -1 -34 33 -4 -37 -9 53 32 45 -41 10 -33 25 -99 100 194 626 522 473 385 320 210 134 119 180 44 36 37 28 24
52 50 47 47 52 59 66 72 86 104 132 201 238 142 136 144 52 42 21 -5 -2 -28 -26 -16 -1 6 43 24 -2 4 43 24 123 536 511 398 407 470 317 231 156 151 163 51 36 54 30
57 53 48 46 47 55 62 67 78 98 141 183 229 247 184 183 78 81 26 -23 2 20 0 -17 9 7 28 7 3 2 8 -18 51 127 208 465 545 556 309 315 370 99 71 136 137 46 39
65 66 56 50 45 43 39 59 78 86 107 147 226 269 216 240 105 32 73 39 -9 -8 42 38 -1 -61 136 -1 5 73 111 -3 24 47 129 149 444 462 343 229 166 92 69 104 126 125 90
78 74 69 63 45 31 25 52 69 86 89 125 213 264 275 214 175 55 57 16 25 44 18 -23 14 57 -4 11 17 98 208 57 -51 -18 16 69 136 343 351 409 346 75 23 85 69 136 128
78 79 81 74 40 26 17 51 59 63 78 132 181 273 276 336 172 48 73 69 25 0 13 13 -14 29 44 -8 23 68 219 67 157 -59 -27 17 150 229 273 430 226 202 328 172 234 236 262
78 80 82 61 43 33 38 50 54 69 70 106 176 221 255 311 231 98 38 31 15 37 48 -10 2 39 14 8 11 41 75 65 231 109 170 -25 -24 107 265 360 385 14 221 206 226 173 309
69 75 56 51 52 36 43 54 71 85 65 80 143 168 185 257 192 46 31 61 39 25 12 13 11 -7 -7 -15 17 38 160 85 170 346 10 141 178 121 77 173 112 67 99 90 139 97 151